Regional Weather Roundup
Issued by NWS

Home | Current Version | Previous Version | Text Only | Print | Product List | Glossary Off
Versions: 1 2 3 4 5 6 7 8 9 10 11 12 13 14 15 16 17 18 19 20 21 22 23 24 25 26 27 28 29 30 31 32 33 34 35 36 37 38 39 40 41 42 43 44 45 46 47 48 49 50

000
ASUS43 KLOT 231306
RWRIL

ILLINOIS REGIONAL WEATHER ROUNDUP
NATIONAL WEATHER SERVICE CHICAGO/ROMEOVILLE IL
800 AM CDT THU OCT 23 2014

NOTE: "FAIR" INDICATES FEW OR NO CLOUDS BELOW 12,000 FEET WITH NO
SIGNIFICANT WEATHER AND/OR OBSTRUCTIONS TO VISIBILITY.

* THESE STATIONS ARE NOT UNDER NWS QUALITY CONTROL. THEY ALSO MAY NOT
  REPORT WEATHER SUCH AS PRECIPITATION OR FOG.

ILZ001-002-007-009-015-016-024-231400-
NORTHWEST ILLINOIS

CITY           SKY/WX    TMP DP  RH WIND       PRES   REMARKS
MOLINE         CLOUDY    43  38  82 SE5       30.14F
STERLING*      CLEAR     36  30  80 SE5       30.18F WCI  32
SAVANNA*       MOCLDY    39  36  89 SE5       30.15F
$$

ILZ003-004-008-010-011-017-018-231400-
NORTH CENTRAL ILLINOIS

CITY           SKY/WX    TMP DP  RH WIND       PRES   REMARKS
ROCKFORD       MOCLDY    37  34  89 SE7       30.20F WCI  32
FREEPORT*      PTCLDY    35  34  93 SE6       30.19S FOG     WCI  30
ROCHELLE*      PTCLDY    34  33  97 SE5       30.20F FOG     WCI  30
DE KALB*       PTCLDY    33  32  97 SE6       30.21S FOG     WCI  27
PERU*          CLEAR     38  34  85 SE5       30.20F WCI  35
$$

ILZ005-006-012>014-019>023-231400-
NORTHEAST ILLINOIS

CITY           SKY/WX    TMP DP  RH WIND       PRES   REMARKS
CHICAGO-OHARE  MOCLDY    38  36  92 S6        30.21S WCI  33
CHICAGO-MIDWAY MOCLDY    42  39  89 S7        30.22S
AURORA         PTCLDY    36  34  92 CALM      30.22R FOG
LANSING*         N/A     36  36  99 CALM      30.23S FOG
JOLIET*        PTCLDY    37  35  94 CALM      30.23R FOG
WAUKEGAN       PTCLDY    38  36  92 SW5       30.21R FOG     WCI  34
DUPAGE AIRPORT PTCLDY    36  35  96 S5        30.21R FOG     WCI  32
KANKAKEE*      PTCLDY    37  36  96 SE3       30.24R FOG
WHEELING       PTCLDY    37  35  92 CALM      30.23S FOG
MORRIS*        CLEAR     32  32 100 CALM      30.22R FOG
ROMEOVILLE*      N/A     37  37 100 S6        30.23R FOG     WCI  33
NORTHERLY ISL    N/A     43  38  82 S9          N/A
$$

LMZ740>746-231400-
SOUTHERN LAKE MICHIGAN

STATION/POSITION SKY/WX   TEMP    WIND        PRES    VSBY  WAVE
                          AIR SEA DIR/SP/G                  HT/PER
                          (F)     (DEG/KT/KT) (MB)    (MI)  (FT/S)
SOUTHERN BUOY              51 54  190/ 14/ 16 1023.3F         2/ 4
WAUKEGAN HARBOR            43     230/  5/  6   N/A
HARRISON CRIB              44     190/ 14/ 16   N/A
BURNHAM HARBOR             44     210/  6/  9   N/A
CALUMET HARBOR             42     180/  5/  8 1022.2S
MICHIGAN CITY              40     140/ 11/ 13   N/A
$$

ILZ025>027-034>036-040-047-049-050-058-095>099-231400-
WEST-CENTRAL ILLINOIS

CITY           SKY/WX    TMP DP  RH WIND       PRES   REMARKS
QUINCY         CLOUDY    49  41  74 S10       30.15F
GALESBURG*     CLOUDY    43  38  85 SE6       30.16S
MACOMB*        CLOUDY    41  39  93 S7        30.18F
JACKSONVILLE*  MOCLDY    46  41  82 S7        30.19F
PITTSFIELD*    MOCLDY    43  40  88 CALM      30.18F
$$

ILZ028>032-037-038-041>044-048-051>054-059>061-231400-
CENTRAL ILLINOIS

CITY           SKY/WX    TMP DP  RH WIND       PRES   REMARKS
PONTIAC        CLEAR     32  32  99 CALM      30.23R FOG
BLOOMINGTON    CLEAR     38  37  96 S7        30.22S WCI  33
DECATUR        CLEAR     36  35  96 CALM      30.23R
PEORIA         PTCLDY    43  37  79 S6        30.20S
LACON*         PTCLDY    40  36  85 SE6       30.19F
LINCOLN*       CLEAR     37  36  95 CALM      30.21S
SPRINGFIELD    PTCLDY    43  39  86 S5        30.21R
TAYLORVILLE    CLEAR     39  37  93 SE7       30.21F WCI  34
$$

ILZ033-039-045-046-055>057-062-063-231400-
EAST-CENTRAL ILLINOIS

CITY           SKY/WX    TMP DP  RH WIND       PRES   REMARKS
CHAMPAIGN      PTCLDY    37  36  96 SE6       30.23R FOG     WCI  32
DANVILLE*      CLEAR     38  38  99 CALM      30.22S FOG
RANTOUL*       PTCLDY    38  37  95 SE5       30.23S FOG     WCI  34
MATTOON        PTCLDY    40  38  93 SE7       30.23R
PARIS*         PTCLDY    37  37 100 CALM      30.26R FOG
$$

ILZ079-100>102-231400-
SOUTHWEST ILLINOIS

CITY           SKY/WX    TMP DP  RH WIND       PRES   REMARKS
ALTON          MOCLDY    37  36  93 VRB3      30.22R
BELLEVILLE     CLEAR     37  37  99 CALM      30.22R
CAHOKIA*       PTCLDY    38  38 100 CALM      30.21F
SPARTA*        FAIR      39  38  96 CALM      30.24R
$$

ILZ064>066-069>071-074>076-080>082-084>086-088>090-092>094-231400-
SOUTH-CENTRAL ILLINOIS

CITY           SKY/WX    TMP DP  RH WIND       PRES   REMARKS
CARBONDALE     FOG      N/A N/A N/A CALM      30.24R VSB 1
CAIRO*         CLEAR     40  38  92 CALM      30.23R FOG
EFFINGHAM*     CLEAR     40  38  92 CALM      30.24R FOG
MARION         CLEAR     41  39  93 SE6       30.24R
MT. VERNON     PTCLDY    36  30  80 CALM      30.23S
CENTRALIA*     PTCLDY    40  37  92 CALM      30.23S FOG
SALEM*         PTCLDY    43  41  94 CALM      30.23R FOG
METROPOLIS*    CLEAR     38  38 100 CALM      30.22R FOG
$$

ILZ067-068-072-073-078-083-087-091-231400-
SOUTHEAST ILLINOIS

CITY           SKY/WX    TMP DP  RH WIND       PRES   REMARKS
LAWRENCEVILLE  CLEAR     40  39  97 CALM      30.26R FOG
FLORA*         CLEAR     37  37 100 CALM      30.24S FOG
FAIRFIELD*     CLEAR     40  40  99 CALM      30.23S FOG
HARRISBURG*    CLEAR     36  36 100 CALM      30.25S FOG
ROBINSON*      CLEAR     35  35 100 CALM      30.27R
CARMI*         SNOW      37  37 100 CALM      30.24S VSB<1/4
$$

ABBREVIATIONS USED IN REMARKS
   TC - TEMPERATURE IN CELSIUS
  WCI - WIND CHILL INDEX
   HX - HEAT INDEX
  VSB - VISIBILITY
$$




USA.gov is the U.S. government's official web portal to all federal, state and local government web resources and services.